ONEWEB-0082, 45452

Orbit data source: Space-Track

ONEWEB-0082, 45452 is a payload satellite owned by One Web (UK) in LEO that was launched on Sat, 21 Mar 2020 UTC via a SOYUZ-2-1B launch vehicle from the Tyuratam Missile And Space Complex (TTMTR). Payloads include a variety of satellites, spacecraft, and rockets equipped with specific instruments for various scientific and technological missions. These include communications satellites like Starlink; space stations such as the ISS; scientific satellites like the Hubble; Earth observation satellites from companies like Planet Labs, Umbra, and HawkEye 360; GPS; miniature CubeSats for education and research; and military/defense satellites.

Loading next visibility...
ONEWEB-0082 details
Identifier
45452, 2020-020AE
Orbit
LEO
Last TLE update12 hours ago
Origin
Flag of UKOne Web (UK)
ManufacturerOne Web
MissionOperational Commercial Communications
Bus & MotorARROW, Unknown motor
Mass148 kg wet, ~140 kg dry
Launch date (UTC)
2020-03-21 (5 years ago)
Launch vehicle
SOYUZ-2-1B
Launch site
Tyuratam Missile And Space Complex (TTMTR)
Object type
Payload
Rocket body
Debris
Shape & HBRTrap Box + 2 Pan, 5 m
Radar Cross Section2.957 m², Medium (>0.1 m² and < 1m²)

Expand to show TLE details & history

TLE from 12 hours ago
0 ONEWEB-0082
1 45452U 20020AE  25044.19460717  .00000611  00000-0  16883-2 0  9990
2 45452  87.8878 118.5100 0002017 108.8631 251.2716 13.11416078238594
Epoch: 2025-02-13T04:40Z
Definitive object data (Epoch: 2025-02-13T04:40:14.059Z)
Latitude
Longitude-95.0228°
Altitude1,221.067 km
Speed7.244 km/s
True Right ascension07h 54m 02s
True Declination0° 00' 00"
Sunlit
Object was in full shadow at TLE epoch
Visualization TLE readout
Latitude-30.06366°
Longitude86.09437°
Altitude1,229.25 km
Speed7.239 km/s
Apparent Right ascension21h 40m 48s
Apparent Declination-76° 02' 25"
Sunlit
Object is in daylight
Visualization observer readout
Local Sidereal Time19:18:50
Azimuth170.858° S
Elevation-28.168°
Doppler factor1
Orbital elements
Apogee altitude1,216.336 km
Perigee altitude1,213.273 km
Semi-major axis7,592.941 km
Eccentricity0.0002017
Inclination87.8878°
RAAN118.51°
Arg. of periapsis108.8631°
True anomaly251.24971°
Mean anomaly251.2716°
Eccentric anomaly251.26066°
Mean motion3.28041 °/min
BSTAR0.0016883
Orbital period109.74 mins
Loading maneuver chart data...
Loading historical data...
Loading historical data...
Loading historical data...
Loading historical data...
Loading historical data...
Loading historical data...
Loading historical data...

ONEWEB-0082 Visibility forecast

Observer location: undefined°, undefined

Span
Click to sort rows by Start time (UTC) header in descending order
Start Az.
Max El. time (UTC)
Max El. Az.
Max El.
End time (UTC)
End Az.
12 mins2025-02-13 18:05:25.939Z341.047° N2025-02-13 18:11:25.939Z284.142° WNW29.584°2025-02-13 18:17:25.939Z221.573° SW
12 mins2025-02-14 04:35:25.939Z148.215° SSE2025-02-14 04:40:25.939Z92.008° ESE35.955°2025-02-14 04:47:25.939Z13.263° NNE
10 mins2025-02-14 06:26:25.939Z230.979° WSW2025-02-14 06:30:25.939Z273.991° WNW27.106°2025-02-14 06:36:25.939Z336.879° NNW
11 mins2025-02-14 16:05:25.939Z24.654° NE2025-02-14 16:10:25.939Z85.877° E31.265°2025-02-14 16:16:25.939Z145.64° SSE
|